Temperature
21 21 21 21 16 11 9 9 10 9 8 8 7 7 6 5 6 5 4 5 7 8 9 10 9 9 10 10 10 10 10 10 11 11 11 11 12 12 12 12 12 13 13 13 13 13 13 14 14
21 21 21 19 13 10 9 9 9 8 8 8 8 7 7 6 6 5 5 6 7 8 9 9 9 9 9 10 10 10 10 10 10 10 10 10 10 11 11 11 12 12 12 12 12 12 13 13 13
22 22 19 11 9 9 9 9 8 8 8 8 7 7 6 5 5 5 5 6 7 8 9 9 9 9 9 9 9 9 9 9 9 9 9 9 9 9 9 10 10 10 11 11 11 11 12 12 13
22 21 14 10 7 8 9 8 8 8 8 8 7 5 4 4 4 5 5 6 8 8 8 9 9 9 9 9 8 8 8 8 7 7 7 7 7 7 7 7 8 8 8 9 9 10 10 11 12
22 18 10 8 8 8 8 8 9 8 7 7 6 4 3 3 4 5 6 7 8 8 8 8 8 8 8 8 8 7 7 6 6 6 6 6 6 6 5 6 6 6 6 7 7 8 8 9 10
21 14 10 8 8 8 8 8 8 7 7 6 5 3 2 3 4 5 6 7 7 8 8 8 8 8 7 7 6 6 5 5 5 5 4 5 5 5 5 5 5 5 5 5 5 6 7 7 8
17 10 9 8 8 8 8 8 7 6 6 6 6 3 2 3 4 5 6 7 7 7 8 8 7 7 6 6 5 5 4 4 4 4 4 4 4 4 4 4 4 4 4 4 4 5 5 6 7
18 11 9 9 9 9 8 8 7 7 6 6 6 4 3 4 5 5 6 6 7 7 7 7 6 5 5 4 4 4 3 3 3 3 3 3 3 3 3 3 3 3 3 3 4 4 4 5 6
19 11 11 10 10 8 8 7 6 6 6 5 5 5 4 4 5 5 6 7 7 6 6 5 5 4 4 3 3 3 3 2 2 2 2 2 2 3 3 3 2 2 3 3 3 3 3 4 5
16 10 11 10 9 7 7 6 5 5 4 4 4 4 4 5 5 6 6 6 6 5 5 4 3 3 3 3 3 2 2 2 2 2 2 2 1 1 1 2 2 2 2 2 2 2 3 3 4
10 8 9 8 9 8 7 6 6 5 4 4 4 5 5 5 5 6 5 5 4 4 3 3 3 2 2 2 2 2 2 1 1 1 1 1 1 1 1 0 1 1 1 1 2 2 2 2 2
9 8 9 9 9 8 7 7 6 6 6 6 6 5 5 5 5 5 4 4 3 3 2 2 2 2 2 1 1 1 1 1 1 0 -0 -0 -0 -0 -1 -1 -1 -1 -1 -0 -0 0 1 1 1
8 8 8 9 9 8 7 6 6 6 6 6 5 5 5 5 5 4 4 3 3 2 2 1 1 1 1 1 1 1 0 0 -0 -1 -1 -1 -2 -2 -2 -2 -2 -3 -3 -2 -2 -2 -1 -0 0
8 8 8 8 8 8 6 5 6 5 5 5 5 5 5 5 4 4 3 2 2 1 1 1 1 1 1 1 1 0 -0 -1 -1 -1 -2 -2 -3 -3 -4 -4 -4 -4 -4 -4 -4 -4 -3 -2 -1
10 8 8 8 8 7 7 6 5 5 5 5 5 5 4 4 4 3 2 2 1 1 1 1 1 1 1 1 0 -0 -1 -1 -2 -3 -3 -4 -4 -5 -5 -5 -5 -5 -5 -5 -5 -5 -4 -4 -3
10 9 10 8 7 7 7 8 5 5 4 4 4 4 4 4 3 2 2 1 1 1 0 0 0 1 0 0 -0 -1 -2 -2 -3 -4 -4 -5 -5 -6 -6 -7 -7 -7 -7 -7 -6 -6 -6 -5 -4
11 11 11 9 7 6 6 7 5 5 4 4 4 4 4 3 3 2 1 1 0 -0 -0 -0 0 0 0 -0 -1 -2 -2 -3 -4 -5 -5 -6 -6 -7 -7 -8 -8 -8 -8 -8 -8 -7 -7 -7 -6
13 12 12 10 7 6 6 6 4 4 4 4 4 4 3 3 3 2 1 0 -0 -1 -1 -0 -0 -0 -1 -1 -2 -2 -3 -4 -4 -5 -6 -7 -7 -8 -8 -9 -9 -9 -9 -9 -9 -9 -9 -9 -8
14 13 12 11 8 7 6 6 4 4 3 3 3 4 3 3 2 2 1 -0 -1 -1 -1 -0 -0 -1 -1 -2 -3 -3 -4 -5 -5 -6 -7 -7 -8 -9 -9 -10 -10 -10 -11 -11 -10 -10 -10 -10 -10
13 13 12 10 8 8 6 5 4 3 3 3 4 4 3 3 2 1 0 -1 -1 -1 -0 -0 -1 -2 -3 -4 -4 -5 -5 -5 -6 -7 -7 -8 -9 -9 -10 -11 -11 -11 -12 -11 -11 -11 -11 -11 -11
13 13 12 11 8 7 7 6 4 3 3 3 4 4 3 3 2 1 -0 -1 -1 -1 -1 -1 -2 -3 -3 -4 -5 -5 -5 -5 -6 -7 -8 -9 -10 -10 -11 -11 -12 -12 -12 -13 -12 -12 -12 -12 -12
13 12 11 10 9 7 8 7 6 3 2 2 3 3 3 2 1 0 -0 -1 -1 -1 -1 -2 -2 -3 -4 -4 -5 -5 -6 -7 -7 -8 -9 -10 -10 -11 -11 -12 -12 -13 -13 -13 -13 -13 -13 -13 -13
12 11 10 9 9 8 7 7 6 3 2 2 2 3 3 2 1 0 -1 -1 -1 -1 -1 -2 -3 -3 -4 -5 -5 -6 -7 -8 -8 -9 -10 -10 -11 -11 -12 -12 -13 -13 -13 -13 -13 -13 -13 -13 -13
11 10 9 7 7 9 9 7 8 3 3 2 2 3 2 1 1 0 -1 -1 -1 -2 -2 -2 -3 -4 -4 -5 -6 -7 -7 -8 -9 -10 -11 -11 -12 -12 -12 -13 -13 -13 -13 -13 -14 -14 -14 -13 -13
11 11 10 11 10 10 8 7 7 6 3 3 2 2 2 1 0 -0 -1 -1 -1 -1 -2 -2 -3 -4 -5 -5 -6 -7 -8 -9 -10 -11 -12 -12 -12 -12 -12 -13 -13 -13 -13 -13 -14 -14 -14 -13 -13
11 11 11 12 10 8 8 7 6 4 3 3 3 3 2 1 0 -0 -1 -2 -2 -2 -2 -3 -4 -4 -5 -6 -7 -7 -9 -10 -11 -11 -12 -12 -13 -13 -13 -13 -13 -13 -13 -13 -14 -14 -13 -13 -13
11 9 10 8 8 8 7 7 6 2 2 1 1 1 1 1 -0 -1 -2 -2 -2 -2 -3 -4 -4 -5 -5 -6 -7 -8 -9 -10 -11 -12 -12 -12 -12 -12 -12 -13 -13 -13 -13 -13 -13 -13 -13 -13 -12
10 8 7 8 10 9 8 8 8 5 2 -0 -0 0 1 0 -0 -1 -2 -2 -2 -3 -4 -4 -5 -5 -6 -6 -7 -8 -9 -10 -11 -12 -12 -12 -12 -12 -12 -12 -12 -13 -13 -13 -13 -13 -12 -12 -11
10 9 8 6 7 8 7 9 7 6 3 1 0 1 1 0 -1 -1 -2 -2 -2 -3 -4 -4 -5 -5 -6 -6 -7 -8 -9 -10 -11 -12 -12 -12 -12 -12 -12 -12 -12 -12 -12 -12 -12 -12 -11 -11 -11
10 10 7 9 8 6 5 8 6 4 4 3 1 1 1 0 -1 -1 -2 -2 -3 -3 -4 -4 -5 -5 -6 -6 -7 -8 -10 -10 -11 -12 -12 -12 -12 -12 -11 -11 -11 -11 -11 -11 -11 -11 -11 -10 -10
Wind_Speed
6 6 4 5 8 10 6 5 3 5 5 3 3 8 9 7 7 7 1 13 17 19 23 25 28 28 29 29 29 30 30 30 30 30 30 30 30 30 30 30 30 30 30 30 29 29 28 28 28
5 5 7 7 7 7 4 4 4 4 7 6 5 6 7 7 5 6 5 11 16 19 22 25 28 28 29 29 30 29 30 29 29 29 29 29 30 30 30 30 31 30 30 29 29 29 28 28 28
6 8 7 7 7 5 5 2 5 5 6 4 5 6 6 5 5 4 6 10 14 19 23 26 28 28 29 29 29 29 30 30 30 29 29 29 29 30 29 30 31 30 30 29 29 29 29 29 29
6 7 8 9 9 4 3 2 4 7 5 6 5 6 5 6 4 4 6 9 13 20 24 27 29 29 28 29 29 29 29 29 29 29 29 29 29 29 29 29 30 30 30 29 29 29 29 29 29
5 7 9 8 6 3 3 3 3 4 4 5 5 6 4 4 6 6 6 10 13 17 22 26 28 28 28 28 29 29 29 29 29 29 29 29 29 29 28 29 29 29 29 29 29 29 29 29 29
6 6 7 6 5 4 2 3 4 6 5 6 6 6 3 3 3 4 6 11 15 17 21 24 28 28 28 27 28 28 28 28 28 28 29 29 29 30 29 30 29 29 29 28 29 29 29 29 29
6 6 7 8 7 5 4 3 5 5 5 3 5 6 5 2 2 3 6 9 14 18 21 24 25 26 27 26 27 28 27 27 27 28 29 29 30 30 29 30 30 29 29 28 28 29 29 29 28
6 7 7 6 7 5 5 4 4 4 5 3 4 8 6 5 4 3 4 7 11 16 20 23 25 25 25 23 25 26 26 26 26 27 28 28 28 28 29 29 29 29 28 28 29 29 29 29 28
5 6 5 6 8 7 5 5 4 4 6 5 4 4 6 8 4 1 2 6 8 12 16 21 22 23 23 20 22 24 23 24 24 24 26 25 24 24 25 27 28 28 28 28 28 29 29 28 26
7 5 5 1 6 8 6 6 8 5 6 4 5 5 6 5 3 3 8 10 11 11 9 18 19 20 20 19 19 21 19 21 21 22 24 23 22 22 23 25 26 27 27 28 28 29 27 24 22
7 7 5 5 6 8 6 6 6 10 4 7 9 9 7 5 4 7 8 7 7 6 8 13 16 18 19 18 17 18 18 19 20 21 23 22 21 20 21 20 21 22 24 23 25 24 22 21 21
8 7 5 5 5 6 6 6 5 3 5 8 10 9 7 6 6 7 7 6 5 7 8 9 14 16 17 18 17 17 17 17 18 19 21 21 18 18 19 18 19 19 20 21 21 21 23 22 22
7 5 5 8 11 8 7 6 5 3 6 10 9 8 8 7 6 6 6 5 6 7 8 9 11 15 16 16 16 16 17 17 18 18 20 21 18 17 18 18 18 19 20 20 19 20 21 21 21
6 8 7 7 7 4 7 5 6 4 7 9 8 7 7 6 6 5 5 5 5 6 7 9 8 15 15 15 16 16 17 18 18 18 20 21 20 18 18 17 16 18 20 20 20 20 18 17 17
6 8 6 3 4 4 7 3 6 8 9 9 7 7 6 5 6 5 4 3 3 4 6 9 10 14 15 15 16 17 18 18 17 18 20 20 20 20 18 16 15 18 20 20 19 18 16 14 14
5 5 2 2 4 4 4 5 6 10 10 9 8 7 5 4 5 5 4 2 3 5 6 8 11 12 14 15 16 17 18 18 18 18 19 20 20 20 18 15 14 19 19 18 15 10 12 13 13
3 2 2 4 5 5 6 6 6 9 11 10 9 8 6 5 5 4 3 1 3 5 6 7 10 11 14 16 17 17 18 18 18 18 18 20 20 21 19 16 15 19 16 15 13 10 11 13 14
3 3 3 5 6 7 6 6 6 10 11 10 9 8 7 6 6 5 3 1 4 5 6 6 8 11 14 15 14 13 14 16 17 17 18 21 21 21 20 16 16 18 12 8 9 12 11 11 13
2 3 3 2 5 7 8 7 7 9 9 10 9 9 8 6 5 5 3 1 4 5 6 6 7 9 12 7 8 8 9 8 12 15 19 21 21 21 20 16 16 15 9 10 10 11 12 10 11
3 2 2 0 3 5 4 7 5 8 9 10 12 11 9 6 5 5 3 1 3 5 6 7 8 8 11 9 9 7 8 7 12 15 18 19 21 22 19 18 15 15 9 10 10 11 10 11 9
2 2 2 2 2 2 3 7 4 4 5 6 8 8 7 8 8 6 3 2 4 5 7 8 8 8 11 14 12 12 6 4 6 8 8 18 22 21 21 20 18 16 9 9 10 10 11 12 10
0 1 2 3 1 4 1 6 5 5 5 7 9 8 8 7 6 4 3 2 4 5 6 7 8 8 11 14 10 11 10 11 11 9 10 19 21 20 20 20 19 16 13 10 11 10 10 11 11
1 1 2 3 2 2 0 2 7 3 7 10 10 10 8 8 7 5 2 1 4 5 6 7 7 7 10 12 9 9 9 8 10 9 10 10 16 19 20 21 19 16 14 11 11 12 10 9 10
1 4 5 5 4 3 3 4 8 6 8 7 9 10 9 8 6 4 2 3 4 5 5 6 8 8 8 10 9 9 11 11 14 14 12 11 10 14 18 21 19 18 15 12 12 10 11 10 11
5 4 6 6 4 5 2 4 9 4 6 6 9 11 9 8 6 4 1 3 5 6 7 7 9 9 9 9 9 10 10 9 12 13 13 14 13 13 13 19 17 17 17 17 15 11 11 10 11
2 4 4 3 5 7 2 7 7 1 0 2 6 9 9 8 6 4 1 2 4 6 7 8 9 9 9 10 10 9 8 8 9 12 12 13 12 13 19 21 21 21 20 19 14 11 11 10 10
3 3 3 5 2 5 7 8 7 3 1 3 7 8 9 8 7 5 2 1 3 5 6 8 9 9 10 10 10 9 8 10 11 11 11 10 13 18 21 22 20 20 19 17 12 10 11 10 11
3 7 5 3 2 6 8 7 6 7 9 8 9 9 9 8 7 5 2 1 3 4 5 7 8 8 9 9 9 11 10 11 12 11 13 13 16 20 19 18 18 18 17 15 12 11 10 10 10
4 4 4 4 4 3 6 9 6 7 8 12 13 11 10 9 8 5 2 1 3 5 6 7 8 8 8 9 9 10 10 11 12 10 12 13 15 18 17 18 19 19 17 13 11 10 11 11 11
4 5 7 3 4 5 4 9 2 4 6 9 11 10 9 9 7 5 2 1 3 5 6 7 7 8 8 8 9 10 10 10 11 12 12 16 15 18 18 18 18 19 17 13 11 11 11 10 11
Wind_Direction
27 69 65 55 61 58 58 19 56 90 80 65 61 88 96 76 83 125 156 14 5 3 0 5 14 16 17 17 17 17 16 15 14 13 12 11 10 9 9 7 5 3 1 359 358 356 356 355 353
56 69 51 56 75 74 34 4 55 71 128 132 72 71 73 76 81 85 28 9 9 10 7 8 16 16 17 17 16 16 15 14 14 13 12 11 9 7 6 5 2 1 359 357 356 354 353 352 350
74 58 64 63 75 108 134 54 100 85 101 107 79 57 66 45 49 58 22 12 16 20 15 12 18 17 17 17 16 15 14 13 13 12 11 10 9 6 5 3 0 358 357 355 354 352 351 349 348
71 56 61 65 76 49 114 169 136 122 76 57 84 58 53 8 45 70 35 24 26 27 21 16 19 18 17 17 16 15 14 13 12 11 10 9 7 4 3 2 359 357 355 354 353 350 349 347 346
60 75 70 66 74 72 40 28 114 97 69 59 88 92 71 27 49 67 51 38 36 32 27 22 21 18 17 16 16 14 14 13 12 10 9 8 5 2 1 360 356 355 354 352 351 348 347 345 344
58 65 78 100 117 141 88 42 85 85 97 96 96 99 89 47 59 55 51 48 45 38 31 26 22 19 16 15 15 13 13 12 11 10 8 6 4 1 359 357 354 353 351 350 349 347 345 344 343
85 74 95 122 136 149 138 82 76 101 95 98 116 105 138 145 124 81 55 54 51 44 36 28 24 20 16 14 14 12 12 12 11 9 7 6 3 360 358 355 352 352 350 350 348 346 344 343 341
102 94 93 128 140 145 133 98 79 84 106 46 93 134 167 176 150 105 58 46 49 45 38 30 24 20 14 12 14 12 12 11 11 9 6 5 2 358 356 353 350 351 349 349 346 345 343 342 340
76 73 116 164 159 148 137 110 84 57 87 47 56 123 141 137 136 103 47 38 35 36 35 29 23 18 14 13 13 11 10 9 9 7 5 2 358 354 354 349 349 349 348 347 344 344 343 342 338
52 96 123 106 145 135 120 120 142 104 82 74 66 80 104 114 136 89 52 37 27 19 21 26 19 15 15 14 11 10 6 3 4 3 2 358 354 352 352 347 348 348 346 345 342 342 342 339 334
57 97 104 66 98 110 109 116 130 128 142 177 166 159 147 139 119 78 63 48 28 9 10 16 16 14 15 11 9 10 3 0 360 360 359 356 352 349 347 344 343 344 345 343 340 339 337 333 331
81 56 86 103 90 93 111 117 114 169 183 159 157 151 152 137 100 84 73 50 24 14 0 359 13 12 12 10 5 8 1 358 356 355 356 355 350 346 344 341 339 342 342 338 336 333 330 329 326
76 89 59 81 83 88 92 96 112 94 109 118 130 136 142 127 108 94 88 63 32 10 348 343 10 11 8 8 4 2 356 353 350 351 353 353 348 343 342 338 337 339 340 336 333 330 326 327 324
93 92 93 75 80 85 109 107 108 154 135 132 142 149 147 136 128 108 79 50 22 355 340 337 8 11 8 5 359 356 351 348 347 348 348 349 347 342 340 336 335 338 337 333 330 324 323 323 320
98 87 76 86 95 117 117 135 192 168 149 152 164 164 153 135 122 116 106 72 8 341 335 340 6 8 5 2 358 353 347 345 342 342 342 343 343 340 338 332 333 336 334 331 329 323 326 321 319
86 91 112 183 128 147 162 248 181 156 156 171 182 183 167 139 127 128 125 98 4 343 336 334 356 359 1 359 353 348 343 340 336 334 335 337 338 337 335 329 329 332 332 331 327 327 328 322 319
62 130 207 195 185 158 191 240 169 164 168 182 192 197 188 161 147 147 141 82 357 339 322 320 336 352 355 353 348 342 337 333 330 330 331 334 335 334 331 323 325 329 328 327 326 329 324 321 320
207 215 231 227 196 167 210 241 177 179 181 190 197 203 204 196 185 169 164 10 343 325 308 305 333 353 353 349 343 335 331 328 327 327 330 331 330 330 328 321 325 325 324 323 322 322 320 318 317
154 187 243 259 161 177 222 244 206 186 187 193 203 209 212 206 173 163 174 323 328 314 315 326 350 351 353 347 341 332 329 322 320 325 329 326 326 327 323 322 322 320 319 319 317 321 319 321 323
146 164 228 304 152 193 253 262 220 186 198 198 199 204 204 189 180 198 205 273 308 309 323 344 353 344 345 338 326 314 313 307 314 322 323 326 327 326 326 323 320 316 315 314 316 318 318 322 330
85 175 229 224 95 78 330 300 195 192 184 194 202 201 195 195 196 204 218 270 301 319 337 349 341 337 338 338 334 332 315 308 325 330 323 329 328 325 322 320 318 315 312 311 310 308 317 318 317
348 215 165 148 117 298 347 302 261 200 203 209 205 196 192 185 179 186 205 286 321 333 341 343 337 333 339 343 342 342 346 337 332 329 324 327 327 324 323 321 317 314 312 306 306 315 306 307 311
218 70 128 149 171 312 277 223 289 162 237 230 211 199 190 182 173 168 164 344 353 347 342 339 336 334 340 343 340 337 332 324 324 324 321 322 324 323 322 321 317 313 311 303 299 301 296 299 297
126 82 70 66 76 307 222 190 279 215 219 225 201 192 184 172 158 145 102 25 350 342 341 343 345 340 337 338 334 330 325 326 329 331 329 329 324 321 318 318 314 310 307 302 300 294 292 293 290
58 63 11 354 354 274 176 224 254 239 213 210 194 185 173 163 155 149 74 349 335 340 348 349 347 338 333 331 328 323 320 321 324 327 328 328 326 324 317 316 312 309 305 303 300 296 294 289 286
49 108 124 276 278 297 285 248 262 144 32 194 168 156 152 155 155 152 147 316 327 345 350 347 340 332 329 328 327 319 319 326 324 322 323 321 320 317 314 316 313 310 307 305 300 297 291 290 286
101 99 142 148 308 289 281 282 299 126 112 131 141 148 162 164 161 162 180 300 342 350 345 337 330 326 325 325 326 324 328 327 324 322 320 320 320 322 321 318 315 313 310 307 301 296 292 289 286
80 141 98 111 313 296 293 284 267 238 227 205 189 182 177 168 166 169 197 302 345 345 333 331 323 318 316 322 328 337 328 325 325 324 325 326 324 324 323 324 323 320 316 312 303 299 297 297 293
134 118 113 119 163 214 290 279 226 229 215 204 201 189 179 175 175 183 205 309 348 341 333 325 319 317 319 324 327 328 325 326 327 327 327 327 326 328 328 328 330 330 327 320 313 306 304 302 303
176 184 157 176 227 198 228 271 252 235 233 199 186 177 171 168 169 177 185 351 345 333 325 319 316 317 319 324 328 328 327 328 329 330 329 331 330 331 332 333 336 338 342 339 332 325 323 317 317
Height
1535 1536 1538 1540 1549 1575 1599 1603 1601 1604 1607 1610 1610 1610 1613 1617 1621 1630 1628 1623 1621 1618 1615 1611 1608 1605 1601 1597 1594 1590 1587 1583 1580 1577 1573 1571 1568 1565 1562 1560 1557 1555 1553 1551 1550 1548 1546 1545 1544
1536 1538 1540 1543 1565 1595 1605 1604 1604 1605 1608 1610 1611 1613 1614 1619 1623 1625 1624 1623 1621 1618 1615 1611 1608 1604 1601 1597 1593 1589 1586 1582 1578 1575 1571 1568 1565 1562 1559 1557 1554 1551 1549 1547 1546 1544 1542 1541 1540
1538 1539 1542 1557 1585 1600 1605 1605 1605 1607 1609 1610 1612 1615 1617 1622 1624 1624 1624 1623 1621 1618 1614 1611 1608 1604 1600 1596 1592 1588 1584 1580 1576 1572 1569 1566 1562 1559 1556 1553 1550 1548 1545 1543 1541 1539 1538 1536 1535
1539 1541 1551 1574 1598 1604 1604 1605 1606 1607 1609 1611 1613 1617 1621 1624 1625 1625 1624 1623 1620 1617 1614 1611 1607 1603 1599 1594 1590 1586 1581 1577 1573 1569 1566 1563 1559 1556 1552 1549 1547 1544 1541 1538 1536 1534 1532 1531 1530
1540 1543 1567 1593 1604 1606 1605 1605 1606 1607 1610 1612 1614 1619 1624 1625 1625 1624 1623 1622 1619 1616 1613 1610 1606 1601 1597 1592 1588 1584 1579 1575 1571 1567 1564 1560 1557 1553 1549 1546 1543 1540 1537 1534 1531 1529 1527 1525 1524
1542 1550 1579 1602 1606 1607 1607 1606 1607 1609 1612 1614 1616 1620 1625 1625 1625 1624 1623 1621 1618 1615 1612 1608 1604 1600 1595 1590 1586 1581 1577 1573 1569 1565 1561 1558 1554 1551 1547 1543 1540 1536 1533 1530 1527 1525 1522 1520 1518
1547 1564 1589 1600 1604 1606 1608 1608 1608 1610 1613 1615 1616 1620 1623 1624 1624 1623 1622 1620 1617 1614 1611 1607 1602 1598 1593 1589 1584 1579 1575 1571 1567 1563 1559 1555 1552 1548 1544 1540 1536 1533 1529 1526 1523 1520 1517 1514 1512
1551 1566 1589 1597 1600 1604 1606 1608 1610 1611 1613 1615 1616 1618 1622 1623 1623 1623 1621 1619 1616 1613 1609 1605 1600 1595 1591 1586 1582 1577 1573 1569 1565 1561 1557 1553 1549 1545 1542 1538 1533 1529 1526 1522 1519 1515 1512 1509 1507
1555 1572 1589 1593 1595 1601 1604 1607 1610 1611 1612 1614 1615 1617 1620 1622 1622 1622 1620 1617 1614 1610 1607 1602 1597 1592 1588 1583 1579 1575 1571 1567 1562 1558 1554 1550 1546 1542 1538 1534 1530 1526 1522 1518 1514 1510 1506 1503 1501
1559 1581 1588 1591 1592 1597 1602 1605 1608 1611 1613 1615 1616 1618 1620 1621 1621 1620 1617 1614 1611 1608 1604 1600 1595 1590 1586 1582 1578 1574 1570 1565 1561 1556 1552 1548 1543 1539 1534 1531 1527 1522 1518 1514 1510 1505 1501 1497 1494
1571 1585 1589 1592 1593 1596 1601 1605 1607 1609 1613 1613 1614 1616 1618 1619 1619 1618 1615 1613 1610 1607 1603 1598 1593 1589 1585 1581 1577 1573 1568 1564 1559 1554 1550 1545 1540 1536 1531 1526 1521 1517 1513 1509 1505 1501 1496 1492 1488
1579 1588 1590 1594 1595 1598 1601 1604 1607 1609 1610 1612 1614 1616 1618 1618 1618 1616 1615 1613 1610 1606 1602 1597 1592 1589 1585 1580 1576 1571 1567 1562 1557 1551 1546 1541 1536 1532 1527 1522 1517 1512 1508 1503 1499 1495 1491 1487 1483
1583 1591 1593 1595 1597 1599 1602 1605 1607 1609 1610 1613 1615 1616 1617 1617 1617 1615 1614 1612 1609 1605 1600 1596 1592 1588 1584 1580 1575 1570 1565 1560 1555 1550 1544 1538 1533 1528 1523 1518 1513 1508 1504 1499 1494 1490 1485 1481 1477
1588 1592 1596 1598 1599 1601 1603 1606 1607 1610 1611 1613 1614 1616 1616 1616 1616 1615 1613 1611 1608 1604 1599 1595 1591 1587 1583 1579 1574 1569 1564 1559 1553 1548 1542 1536 1530 1525 1519 1514 1509 1504 1499 1495 1490 1485 1480 1475 1471
1590 1595 1599 1600 1600 1603 1605 1608 1607 1608 1610 1612 1613 1614 1615 1615 1615 1614 1612 1610 1606 1602 1598 1594 1591 1587 1582 1578 1573 1568 1562 1556 1551 1545 1539 1533 1527 1521 1516 1510 1505 1500 1495 1490 1485 1480 1475 1470 1465
1592 1597 1599 1601 1601 1603 1607 1603 1604 1606 1608 1610 1612 1613 1614 1614 1614 1613 1611 1608 1605 1602 1598 1594 1590 1586 1581 1576 1571 1566 1560 1554 1547 1541 1535 1529 1524 1518 1512 1507 1501 1496 1491 1486 1481 1475 1469 1464 1459
1593 1595 1596 1601 1601 1602 1605 1602 1603 1604 1606 1608 1610 1611 1612 1612 1612 1611 1610 1607 1604 1600 1596 1592 1588 1584 1579 1574 1569 1563 1557 1551 1544 1538 1532 1526 1520 1514 1509 1503 1497 1492 1487 1482 1477 1471 1466 1459 1454
1590 1592 1593 1596 1598 1601 1603 1601 1601 1602 1604 1605 1607 1609 1610 1610 1611 1610 1608 1606 1603 1599 1594 1591 1587 1582 1577 1571 1565 1560 1554 1547 1541 1535 1529 1523 1517 1511 1505 1499 1493 1488 1482 1477 1472 1467 1462 1457 1450
1585 1589 1591 1593 1595 1599 1600 1598 1599 1600 1602 1603 1604 1606 1607 1608 1609 1608 1607 1604 1601 1597 1593 1589 1584 1579 1573 1567 1560 1553 1547 1542 1536 1531 1525 1519 1513 1506 1500 1494 1489 1483 1478 1473 1468 1463 1458 1453 1448
1586 1589 1591 1594 1595 1597 1597 1596 1595 1596 1597 1598 1600 1602 1604 1606 1606 1606 1605 1602 1598 1594 1590 1586 1581 1576 1570 1564 1557 1551 1544 1538 1532 1527 1521 1515 1508 1502 1496 1490 1484 1479 1473 1469 1464 1460 1454 1449 1447
1587 1588 1590 1593 1596 1597 1598 1592 1595 1594 1595 1597 1598 1600 1602 1603 1604 1604 1602 1599 1596 1592 1588 1584 1579 1573 1567 1561 1554 1547 1541 1534 1528 1521 1515 1509 1503 1497 1491 1485 1480 1474 1469 1464 1460 1456 1451 1446 1443
1588 1588 1589 1592 1597 1600 1598 1600 1587 1593 1594 1593 1594 1596 1598 1600 1601 1601 1599 1597 1593 1590 1586 1581 1576 1571 1565 1558 1551 1544 1537 1530 1524 1517 1510 1505 1499 1493 1487 1481 1475 1470 1465 1460 1455 1451 1448 1443 1439
1587 1587 1589 1592 1595 1600 1601 1604 1589 1593 1593 1589 1589 1592 1595 1597 1598 1598 1596 1594 1591 1587 1583 1579 1574 1569 1562 1556 1549 1542 1535 1528 1521 1514 1507 1501 1495 1489 1484 1477 1471 1466 1460 1455 1450 1446 1442 1439 1435
1587 1589 1593 1598 1601 1600 1595 1602 1587 1592 1586 1583 1584 1587 1591 1594 1595 1595 1594 1591 1588 1585 1581 1577 1572 1566 1560 1554 1547 1540 1533 1525 1518 1510 1503 1497 1491 1485 1479 1473 1467 1461 1455 1450 1444 1440 1436 1433 1430
1588 1593 1599 1596 1599 1596 1595 1595 1584 1578 1579 1579 1580 1583 1588 1591 1592 1592 1591 1589 1586 1583 1579 1574 1569 1563 1557 1551 1544 1538 1531 1523 1516 1509 1502 1495 1488 1482 1475 1469 1463 1456 1450 1444 1439 1434 1430 1427 1424
1590 1592 1601 1604 1605 1602 1596 1594 1579 1578 1578 1577 1578 1581 1585 1588 1589 1589 1588 1586 1583 1580 1576 1571 1566 1560 1554 1548 1542 1536 1529 1522 1515 1509 1502 1495 1488 1481 1473 1466 1458 1451 1444 1438 1433 1429 1425 1421 1419
1591 1598 1597 1606 1607 1609 1597 1587 1577 1579 1578 1578 1578 1580 1583 1585 1586 1586 1585 1583 1581 1578 1573 1569 1563 1558 1552 1546 1540 1533 1527 1520 1514 1508 1501 1494 1487 1479 1471 1463 1454 1446 1439 1433 1428 1423 1420 1416 1414
1591 1597 1604 1606 1605 1605 1596 1588 1579 1573 1576 1577 1577 1577 1580 1582 1583 1583 1582 1581 1578 1575 1571 1567 1561 1556 1550 1545 1538 1532 1526 1519 1513 1506 1499 1493 1486 1478 1469 1460 1451 1442 1435 1428 1423 1419 1416 1413 1411
1594 1597 1601 1608 1608 1609 1606 1584 1568 1566 1566 1569 1570 1573 1576 1579 1580 1580 1579 1578 1576 1573 1569 1564 1559 1554 1548 1543 1537 1530 1524 1518 1511 1505 1498 1491 1484 1477 1469 1460 1450 1441 1433 1427 1422 1418 1414 1412 1409
1589 1591 1599 1601 1603 1611 1613 1585 1564 1563 1562 1563 1565 1569 1573 1576 1577 1577 1577 1575 1573 1570 1566 1562 1557 1552 1547 1541 1535 1529 1523 1516 1510 1503 1497 1491 1484 1477 1469 1461 1452 1443 1436 1430 1424 1419 1415 1412 1409